Home > Weather > Pond Inlet > Past weeks

Flag for Canada Past Weather in Pond Inlet, Nunavut, Canada — Yesterday and Last 2 Weeks

Now
52 °F

Sunny.


Feels Like: 52 °F
Forecast: 40 / 48 °F
Wind: No wind

Location: Pond Inlet

Current Time: Jul 28, 2016 at 10:44:12 AM

Latest Report: Jul 28, 2016 at 10:00 AM


Visibility: 9 mi

Pressure: 30.24 "Hg

Humidity: 72%

Dew Point: 43 °F

Location of Pond InletLocation

Past Weather in Pond Inlet — Graph

°F

Pond Inlet Temperature Yesterday

Maximum temperature yesterday: 55 °F (at 7:00 PM)
Minimum temperature yesterday: 43 °F (at 2:00 AM)
Average temperature yesterday: 50 °F

High & Low Weather Summary for the Past Weeks

 TemperatureHumidityPressure
High61 °F (Jul 14, 5:00 PM)100% (Jul 19, 5:00 AM)30.26 "Hg (Jul 19, 5:00 AM)
Low36 °F (Jul 13, 9:00 AM)34% (Jul 17, 1:00 PM)29.15 "Hg (Jul 19, 8:00 AM)
Average48 °F71%29.76 "Hg
* Reported Jul 13 9:00 AM — Jul 28 9:00 AM, Pond Inlet, Weather by CustomWeather, © 2016

Note: Actual official high and low records may vary slightly from our data, if they occured in-between our weather recording intervals... More about our weather records

Advertising

Pond Inlet Weather History for the Previous 24 Hours

Scroll right to see more
 ConditionsComfort  
Time TempWeatherWind HumidityBarometerVisibility
9:00 AM
Thu, Jul 28
50 °FSunny.2 mph76%30.25 "Hg9 mi
8:00 AM50 °FPartly sunny.2 mph71%30.25 "Hg9 mi
7:00 AM50 °FSunny.5 mph71%30.25 "Hg9 mi
6:00 AM50 °FSunny.3 mph76%30.26 "Hg9 mi
5:00 AM46 °FSunny.2 mph82%30.26 "Hg9 mi
4:00 AM46 °FSunny.No wind82%30.26 "Hg9 mi
3:00 AM46 °FSunny.No wind76%30.26 "Hg9 mi
2:00 AM45 °FPassing clouds.6 mph81%30.26 "Hg9 mi
1:00 AM48 °FSunny.5 mph76%30.25 "Hg9 mi
12:00 AM48 °FSunny.6 mph71%30.25 "Hg9 mi
11:00 PM
Wed, Jul 27
50 °FPassing clouds.5 mph71%30.24 "Hg9 mi
10:00 PM54 °FSunny.2 mph58%30.24 "Hg9 mi
9:00 PM55 °FSunny.9 mph55%30.24 "Hg9 mi
8:00 PM54 °FSunny.12 mph58%30.24 "Hg9 mi
7:00 PM55 °FSunny.7 mph55%30.24 "Hg9 mi
6:00 PM54 °FSunny.9 mph58%30.24 "Hg9 mi
5:00 PM54 °FPassing clouds.10 mph58%30.25 "Hg30 mi
4:00 PM52 °FPassing clouds.9 mph62%30.25 "Hg30 mi
3:00 PM52 °FPassing clouds.7 mph62%30.24 "Hg30 mi
2:00 PM50 °FPassing clouds.6 mph62%30.24 "Hg30 mi
1:00 PM50 °FPassing clouds.6 mph67%30.24 "Hg30 mi
12:00 PM50 °FPassing clouds.6 mph58%30.24 "Hg30 mi
11:00 AM48 °FPassing clouds.5 mph66%30.24 "Hg30 mi
10:00 AM48 °FSunny.5 mph62%30.24 "Hg9 mi
Weather by CustomWeather, © 2016

See weather overviewHow to use our weather pages